Regional Weather Roundup
Issued by NWS Upton, NY

Current Version | Previous Version | Text Only | Print | Product List | Glossary Off
Versions: 1 2 3 4 5 6 7 8 9 10 11 12 13 14 15 16 17 18 19 20 21 22 23 24 25 26 27 28 29 30 31 32 33

000
ASUS41 KOKX 220705
RWROKX

Regional Weather Roundup
National Weather Service New York NY
200 AM EST THU FEB 22 2018

Note: "FAIR" indicates few or no clouds below 12,000 feet with no
significant weather and/or obstructions to visibility.

NYZ071-072-176-178-NJZ106-104-220800-
New York City Metro Area

CITY           SKY/WX    TMP DP  RH WIND       PRES   REMARKS
Central Park   CLOUDY    56  32  40 NE10G23   30.47R
Bronx Bot Gard   N/A     54  32  43 NW10      30.47R
Bronx Lehman C   N/A     54  34  47 N7          N/A
LaGuardia Arpt CLOUDY    56  33  42 N14       30.44R
Queens College   N/A     55  32  41 N9          N/A
Kennedy Intl   CLOUDY    56  34  43 N14       30.45R
Breezy Point     N/A     55 N/A N/A N7          N/A
Brooklyn Coll    N/A     57  37  47 N10         N/A
Staten Island    N/A     55  39  54 N8          N/A
Newark/Liberty CLOUDY    56  38  50 N13       30.45R
Teterboro      CLOUDY    56  37  49 N9G20     30.44R
$$

NYZ177-179-078>081-220800-
Long Island New York

CITY           SKY/WX    TMP DP  RH WIND       PRES   REMARKS
Jones Beach      N/A     55 N/A N/A N13         N/A
Wantagh          N/A     55  34  44 N8          N/A
Hempstead        N/A     55  37  50 NW5       30.47R
Matinecock Pt    N/A     46 N/A N/A NE17        N/A
Farmingdale    CLOUDY    54  39  57 N7        30.44R
MacArthur/ISP  LGT RAIN  53  40  61 N10       30.44R
Shirley        CLOUDY    54  42  64 N13       30.44R
Mt Sinai Harb    N/A     43 N/A N/A N9          N/A
Westhampton    LGT RAIN  55  43  63 N9        30.44R
East Hampton   LGT RAIN  53  46  77 N5        30.42R
Southold         N/A     52  45  76 N8          N/A
Montauk          N/A     49  45  86 NW6       30.43R
$$

NYZ052-065-067-220800-
Hudson Valley

CITY           SKY/WX    TMP DP  RH WIND       PRES   REMARKS
White Plains   LGT RAIN  50  37  61 N13       30.45R
Larchmont Harb   N/A     52 N/A N/A N15         N/A
Croton On Huds   N/A     50 N/A N/A N9G16       N/A
Somers           N/A     46  36  66 N8          N/A
Brewster         N/A     45  36  70 N9          N/A
Newburgh       CLOUDY    46  36  66 N12G18    30.50R
Montgomery     CLOUDY    45  35  68 NE9       30.48R
Otisville        N/A     45  34  65 N1          N/A
Warwick          N/A     46  34  61 NW5         N/A
Suffern          N/A     50  34  53 N9          N/A
Poughkeepsie   CLOUDY    44  33  65 N17G26    30.51R
Albany         CLOUDY    39  32  76 N7        30.56R WCI  34
$$

NJZ001-105-106-008-010-013-015-019>022-104-220800-
New Jersey

CITY           SKY/WX    TMP DP  RH WIND       PRES   REMARKS
Newark/Liberty CLOUDY    56  38  50 N13       30.45R
Teterboro      CLOUDY    56  37  49 N9G20     30.44R
Caldwell       CLOUDY    52  35  52 VRB6      30.48R
Somerville     CLOUDY    52  36  54 N9        30.45R
Linden         CLOUDY    56  39  53 N7        30.45R
Perth Amboy      N/A     55 N/A N/A NW6         N/A
Sussex         CLOUDY    47  36  65 NE5       30.48R
Andover          N/A     45  35  68 VRB5      30.48R
Trenton        CLOUDY    55  41  59 N8        30.45R
Millville      CLOUDY    59  50  72 N9        30.43R
Atlantic City  CLOUDY    61  55  81 N9        30.42R
Wrightstown    CLOUDY    56  45  67 N9        30.42
Toms River     CLOUDY    59  50  72 N6        30.44R
Belmar         CLOUDY    58  45  62 N8        30.45R
$$

PAZ047>061-062-071-220800-
Eastern Pennsylvania

CITY           SKY/WX    TMP DP  RH WIND       PRES   REMARKS
Philadelphia   CLOUDY    56  38  50 N14       30.45R
Allentown      CLOUDY    51  32  48 NE5       30.48R
Scranton       CLOUDY    40  33  76 N10       30.53R WCI  33
$$

CTZ002-004>006-009-010-012-RIZ004-006-007-MAZ004-011-015-220800-
Southern New England

 In CT

CITY           SKY/WX    TMP DP  RH WIND       PRES   REMARKS
Bradley Intl   CLOUDY    49  29  46 N12       30.49R
Hartford       CLOUDY    51  37  58 N12       30.47R
Danbury        CLOUDY    46  36  68 N13G21    30.49R
Wtrbury/Oxford CLOUDY    46  37  71 N14       30.47R
Norwalk Harbor   N/A     50 N/A N/A N12         N/A
Bridgeport     LGT RAIN  52  40  63 N12       30.46R
Meriden        CLOUDY    49  36  61 N13       30.47R
New Haven      CLOUDY    54  38  54 N15       30.44R
Chester        CLOUDY    54  41  62 N13       30.44R
Groton         CLOUDY    56  46  69 N6        30.42R
Willimantic    CLOUDY    55  43  63 N9G21     30.46R

 In RI

CITY           SKY/WX    TMP DP  RH WIND       PRES   REMARKS
Providence     CLOUDY    57  43  59 N15       30.44R
Block Island   CLOUDY    52  49  89 NW8       30.42R
Westerly       CLOUDY    56  52  86 N6        30.43R

In MA

CITY           SKY/WX    TMP DP  RH WIND       PRES   REMARKS
Boston         CLOUDY    51  20  29 NW15      30.48R
Worcester      CLOUDY    48  36  63 N12G18    30.46R
Westfield      CLOUDY    47  33  58 N9        30.50R
Provincetown   CLOUDY    45  33  63 N12G20    30.46R
Nantucket      CLOUDY    48  44  86 N15       30.43R
$$

ANZ330-335-338-340-345-350-353-355-220800-
Coastal Marine Observations


STATION/POSITION TIME  SKY/WX   TEMP    WIND        PRES    VSBY  WAVE
                                AIR SEA DIR/SP/G                  HT/PER
                 (UTC)          (F)     (DEG/KT/KT) (MB)    (MI)  (FT/S)
NY Harb Entrance 0650            47 42   10/  4/  6 1030.8          4/ 6
20 S Fire Island 0650            47 43  340/  2/  4 1030.6          3/ 6
15 E Barnegat Li 0630               42                N/A           3/ 6
Hudson Canyon    0650            49 47  300/  8/ 10 1029.4          4/ 6
Kings Point      0630            50 39   40/ 14/ 17 1031.8
Execution Rocks  NOT AVBL
Western LI Sound NOT AVBL
Central LI Sound 0630            47      10/ 10/ 12   N/A           0
Robbins Reef     0648            56     350/ 10/ 11 1031.4
$$


>>>>>>>>>>>>>>>>>>>>>>>>>>>> KEY <<<<<<<<<<<<<<<<<<<<<<<<<<<
>                                                          <
>     SKY/WX - Sky Condition/Present Weather               <
>     TMP    - Temperature in Fahrenheit                   <
>     DP     - Dew Point in Fahrenheit                     <
>     RH     - Relative Humidity in Percent                <
>     WIND   - Direction (from) and Speed in MPH           <
>     PRES   - Mean Sea Level Pressure (inches of Hg)      <
>     WCI    - Wind Chill Index                            <
>     VSB    - Visibility in Miles                         <
>     HX     - Heat Index                                  <
>     TC     - Temperature in Celsius                      <
>     VRB    - Varibale Wind Direction                     <
>                                                          <
>>>>>>>>>>>>>>>>>>>>>>>>>>>> KEY <<<<<<<<<<<<<<<<<<<<<<<<<<<




USA.gov is the U.S. government's official web portal to all federal, state and local government web resources and services.